Zurück zum Katalog

FENGYUN 1C DEB

LostPO
NORAD 31833·DEBRIS·🇨🇳 China

Gestartet May 10, 1999 von Taiyuan Satellite Launch Center

Loading…

Nächste Überflüge (nächste 24 Stunden)

TLE

VeraltetSource: Space-Track

Epoche: Aug 25, 2024, 19:47 UTC

1 31833U 99025CHX 24238.82458326  .00002593  00000-0  29219-2 0  9994
2 31833  98.2036 250.5203 0323959  98.2182 265.5829 13.51045989847467

Verfolge FENGYUN 1C DEB in Echtzeit mit AllMySat

Download on the App Store